Вернуться в каталог

COSMOS 2251 DEB

АктивенLEO
NORAD 34018·DEBRIS·🇷🇺 Russia

Запущен Jun 16, 1993 с Plesetsk Cosmodrome

Loading…

Ближайшие Пролёты (ближайшие 24 часа)

TLE

СвежийSource: Space-Track

Эпоха: Sep 14, 2026, 05:37 UTC

1 34018U 93036HD  26257.23412922  .00000282  00000-0  22095-3 0  9997
2 34018  73.8798 345.0677 0265978 330.0533  57.4913 13.81362014884611

Отслеживайте COSMOS 2251 DEB в реальном времени с AllMySat

Download on the App Store